www.pogodaiklimat.ru

Погода и климат >> Архив погоды >> Южная Африка >> Porterville


ПОГОДА в Porterville

  • Прогноз погоды в Porterville
  • Монитор погоды в Porterville
  • Климат города

АРХИВ ПОГОДЫ в Porterville

Время (UTC), дата Ветер
(напр.,м/с)
 
Видим.   Явления Облачность Т
(С)
Тd
(С)
f
(%)
Тe
(С)
Тes
(С)
Комфортность P
(гПа)
Po
(гПа)
Тmin
(С)
Tmax
(С)
R
(мм)
R24
(мм)
S
(см)
12 11.12 С 3 н/о н/о +31.6 +7.6 22 +30 +30 жарко 855.6 994.7 +11.3 +32.0
15 11.12 С 3 н/о н/о +31.8 +5.7 19 +30 +30 жарко 854.5 993.4 +29.8 +32.6
18 11.12 СЗ 3 н/о н/о +23.7 +8.3 37 +24 +24 комфорт 852.1 994.9 +23.7 +32.6
21 11.12 СЗ 2 н/о н/о +20.3 +9.0 48 +22 +22 комфорт 852.2 996.8 +20.3 +32.6
00 12.12 С 1 н/о н/о +17.0 +8.2 56 +18 +18 850.7 996.9 +15.0 +32.6
03 12.12 ЮВ 2 н/о н/о +13.6 +7.8 68 +13 +13 849.4 997.3 +13.6 +32.6
06 12.12 Ю 3 н/о н/о +18.7 +8.1 50 +19 +19 853.9 999.6 +12.8
09 12.12 С 1 н/о н/о +24.5 +8.6 36 +25 +25 комфорт 856.3 999.1 +12.8 +25.0
12 12.12 С 3 н/о н/о +27.7 +5.0 23 +26 +26 жарко 856.5 997.6 +12.8 +28.8
15 12.12 С 3 н/о н/о +26.1 +6.9 29 +26 +26 жарко 855.6 997.5 +25.7 +29.5
18 12.12 С 1 н/о н/о +19.2 +10.0 55 +21 +21 комфорт 853.4 998.8 +19.2 +29.5
21 12.12 штиль 0 н/о н/о +15.9 +9.1 64 +16 +16 852.8 999.9 +15.9 +29.5
00 13.12 штиль 0 н/о н/о +13.2 +8.3 72 +13 +13 851.2 999.6 +12.8 +29.5
03 13.12 штиль 0 н/о н/о +11.8 +8.3 79 +11 +11 850.9 1000.0 +10.4 +29.5
06 13.12 С 1 н/о н/о +17.4 +8.1 54 +18 +18 854.2 1000.7 +9.7
09 13.12 СВ 3 н/о н/о +19.6 +9.0 50 +21 +21 комфорт 855.9 1001.3 +9.7 +19.9
12 13.12 ЮЗ 3 н/о н/о +18.9 +10.3 57 +20 +20 855.0 1000.7 +9.7 +19.9
15 13.12 С 5 н/о н/о +20.4 +10.6 53 +22 +22 комфорт 856.0 1001.0 +19.0 +22.7
18 13.12 С 3 н/о н/о +17.4 +12.3 72 +18 +18 855.9 1002.6 +17.4 +22.7
21 13.12 СВ 2 н/о н/о +16.8 +12.9 78 +17 +17 856.7 1003.8 +16.6 +22.7
00 14.12 штиль 0 н/о н/о +16.3 +12.7 79 +16 +16 856.2 1003.6 +16.1 +22.7
03 14.12 штиль 0 н/о н/о +14.4 +12.1 86 +14 +14 855.2 1003.5 +12.9 +22.7
06 14.12 СЗ 1 н/о н/о +19.4 +13.6 69 +22 +22 комфорт 858.0 1003.8 +12.5
09 14.12 З 2 н/о н/о +24.6 +12.0 45 +26 +26 жарко 860.1 1003.2 +12.5 +24.6
12 14.12 С 2 н/о н/о +27.9 +8.0 29 +28 +28 жарко 859.6 1000.9 +12.5 +28.4
15 14.12 С 3 н/о н/о +29.6 +7.8 25 +29 +29 жарко 859.0 999.4 +27.7 +30.0
18 14.12 С 1 н/о н/о +22.7 +8.9 41 +24 +24 комфорт 856.6 1000.4 +22.7 +30.0
21 14.12 Ю 2 н/о н/о +16.2 +8.2 59 +17 +17 854.3 1001.4 +16.1 +30.0
00 15.12 ЮЗ 2 н/о н/о +14.8 +8.1 64 +15 +15 852.7 1000.4 +14.7 +30.0
03 15.12 ЮЗ 1 н/о н/о +13.5 +9.0 74 +14 +14 851.3 999.5 +11.2 +30.0
06 15.12 В 1 н/о н/о +21.7 +8.0 41 +23 +23 комфорт 855.5 999.7 +11.2
09 15.12 В 1 н/о н/о +30.6 +9.8 28 +30 +30 жарко 858.5 998.3 +11.2 +30.6
12 15.12 СВ 4 н/о н/о +35.6 +8.1 19 +34 +34 очень
жарко
858.9 996.2 +11.2 +35.9
15 15.12 С 4 н/о н/о +34.1 +7.6 19 +32 +32 жарко 856.7 994.6 +34.1 +36.8
18 15.12 С 1 н/о н/о +26.3 +9.8 35 +27 +27 жарко 854.1 995.8 +26.3 +36.8
21 15.12 С 1 н/о н/о +19.5 +11.1 58 +22 +22 комфорт 852.0 997.1 +19.5 +36.8
00 16.12 СВ 1 н/о н/о +15.8 +11.4 75 +16 +16 849.2 995.9 +14.9 +36.8
03 16.12 штиль 0 н/о н/о +14.8 +11.2 79 +15 +15 849.1 996.3 +13.8 +36.8
06 16.12 Ю 2 н/о н/о +18.5 +12.5 68 +20 +20 852.3 997.9 +13.6
09 16.12 В 2 н/о н/о +24.8 +10.8 41 +26 +26 жарко 855.3 997.9 +13.6 +24.8
12 16.12 СЗ 1 н/о н/о +31.1 +10.2 28 +31 +31 жарко 856.6 996.0 +13.6 +31.8
15 16.12 З 2 н/о н/о +31.3 +9.8 26 +31 +31 жарко 854.7 993.9 +30.3 +32.8
18 16.12 СЗ 2 н/о н/о +25.4 +12.1 43 +27 +27 жарко 853.0 995.1 +25.4 +32.8
21 16.12 Ю 2 н/о н/о +20.7 +11.1 54 +23 +23 комфорт 851.7 996.1 +20.3 +32.8
00 17.12 ЮВ 2 н/о н/о +18.5 +11.6 64 +19 +19 850.5 995.9 +18.4 +32.8
03 17.12 Ю 2 н/о н/о +16.9 +11.6 71 +17 +17 849.8 996.0 +16.0 +32.8
06 17.12 ЮВ 2 н/о н/о +21.2 +12.2 56 +23 +23 комфорт 853.3 997.6 +16.0
09 17.12 З 1 н/о н/о +27.5 +12.1 38 +29 +29 жарко 856.1 997.3 +16.0 +28.0
12 17.12 СЗ 2 н/о н/о +30.0 +12.7 35 +31 +31 жарко 855.9 995.8 +16.0 +30.3
15 17.12 СЗ 1 н/о н/о +29.6 +12.8 36 +31 +31 жарко 854.4 994.4 +29.4 +31.3
18 17.12 СЗ 2 н/о н/о +21.7 +13.4 59 +24 +24 комфорт 852.0 995.9 +21.7 +31.3
21 17.12 ЮЗ 2 н/о н/о +19.3 +12.8 66 +21 +21 комфорт 852.8 998.1 +18.5 +31.3
00 18.12 ЮЗ 1 н/о н/о +17.7 +12.0 69 +19 +19 852.6 998.7 +17.6 +31.3
03 18.12 Ю 2 н/о н/о +16.4 +11.4 72 +17 +17 853.1 1000.0 +16.4 +31.3
06 18.12 В 2 н/о н/о +18.8 +11.9 64 +20 +20 855.8 1001.7 +16.2
09 18.12 З 2 н/о н/о +25.5 +12.2 44 +27 +27 жарко 859.0 1001.6 +16.2 +25.7

 

Местоположение метеостанции Porterville (Южная Африка): широта -30.01 долгота 18.98 высота над уровнем моря 123 м.

В архиве по умолчанию представлена погода в Porterville за последнюю неделю. Архивные данные за месяц целиком и за предыдущие месяцы, начиная с января 2011 года, Вы можете получить, выбрав интересующий диапазон дат из раскрывающегося списка и нажав кнопку "Ввод!".

Внимание! Время в таблицах - всемирное. Для получения местного времени необходимо прибавить поправку, которая в Porterville равна 2 ч.

Смотрите также архив погоды в соседних городах и на ближайших метеорологических станциях:

Погода в Pofadder (Южная Африка) (105 км)
Погода в Springbok (Южная Африка) (111 км)
Погода в Nieuwoudtville (Южная Африка) (148 км)
Погода в Brandvlei (Южная Африка) (153 км)
Погода в Koingnaas (Южная Африка) (165 км)
Погода в Calvinia (Южная Африка) (178 км)
Погода в Vredendal (Южная Африка) (189 км)
Погода в Vioolsdrif (Южная Африка) (198 км)
Погода в Augrabies Falls (Южная Африка) (205 км)
Погода в Port Nolloth (Южная Африка) (222 км)

Пояснения к столбцам:

Ветер - указаны скорость ветра в м/с - средняя за 10 мин, порывы в срок и между сроками (в фигурных скобках) и направление, откуда дует ветер: С - северный, СВ - северо-восточный, В - восточный, ЮВ - юго-восточный, Ю - южный, ЮЗ - юго-западный, З - западный, СЗ - северо-западный.
Видимость - горизонтальная дальность видимости в метрах или километрах. При видимости от 1 до 10 км при отсутствии осадков обычно наблюдается дымка, при ухудшении видимости до 1 км и менее - туман. В сухую погоду видимость может ухудшаться дымом, пылью или мглою.
Явления - указаны атмосферные явления, наблюдавшиеся в срок или в последний час перед сроком; фигурными скобками обозначены явления, наблюдавшиеся между сроками (за 1-3 часа до срока); квадратными скобками обозначены град или гололедные отложения с указанием их диаметра в мм.
Облачность - указаны через наклонную черту общая и нижняя облачность в баллах и высота нижней границы облаков в метрах; квадратными скобками обозначены формы облаков: Ci - перистые, Cs - перисто-слоистые, Cc - перисто-кучевые, Ac - высококучевые, As - высокослоистые, Sc - слоисто-кучевые, Ns - слоисто-дождевые, Cu - кучевые, Cb - кучево-дождевые. Подробнее классификацию облаков см. в Атласе облаков (PDF).
T - Температура воздуха - температура, измеренная на высоте 2 м над землей.
Td - Температура точки росы - температура, при понижении до которой содержащийся в воздухе водяной пар достигнет насыщения.
f - Относительная влажность воздуха - влажноcть воздуха, измеренная на высоте 2 м над землей.
Te - Эффективная температура - температура, которую ощущает одетый по сезону человек в тени. Характеристика душности погоды. При расчете учитывается влияние влажности воздуха и скорости ветра на теплоощущения человека.
Tes - Эффективная температура на солнце - температура, которую ощущает человек, с поправкой на солнечный нагрев. Характеристика знойности погоды. Зависит от высоты солнца над горизонтом, облачности и скорости ветра. Ночью, в пасмурную погоду, а также при ветре 12 м/с и более поправка равна нулю.
P - Атмосферное давление - приведенное к уровню моря атмосферное давление.
Po - Атмосферное давление - измеренное на уровне метеостанции атмосферное давление.
Tmin - Минимальная температура - минимум температуры воздуха на высоте 2 м над землей.
Tmax - Максимальная температура - максимум температуры воздуха на высоте 2 м над землей.
R - Количество осадков - Количество выпавших осадков за период времени, мм. При наведении курсора мыши на число - период времени, за который выпало указанное количество осадков.
R24 - Количество осадков - Количество выпавших осадков за 24 часа, мм.
S - Снежный покров - Высота снежного покрова, см. При наведении курсора мыши на число - состояние снежного покрова и степень покрытия местности в баллах.